Location: College Rock
(37.2713°N, 119.1740°W)
Time: 03:57:16
(UTC+00:00)

Cosmos 1980 Rocket - Pass Details

Date: 29 October 2020
Orbit: 831 x 848 km, 71.0° (Epoch: 23 November)

Event Time Altitude Azimuth Distance (km) Brightness Sun altitude
Exits shadow 12:51:31 - 337° (NNW) 3,099 4.9 -17.9°
Reaches altitude 10° 12:53:13 10° 336° (NNW) 2,443 4.3 -17.6°
Maximum altitude 12:58:50 84° 249° (WSW) 842 2.1 -16.4°
Drops below altitude 10° 13:04:25 10° 162° (SSE) 2,435 4.9 -15.3°
Sets 13:06:50 0° 162° (SSE) 3,367 5.7 -14.9°
